DW4988 Weather Reports


time (UTC)temp
F
wind
direction
speed
knots
gust
knots
rain 1hr
in
rain 24hr
in
rain mn
in
humidity
%
barometer
mb
20220629040048 79 121 7.0 11.3 0.00 0.06 0.06 33 1018.6
20220629034535 78 128 7.0 14.8 0.00 0.06 0.06 38 1018.2
20220629033037 79 224 9.6 22.6 0.00 0.06 0.06 34 1019.8
20220629031546 80 341 0.0 3.5 0.00 0.06 0.06 31 1018.6
20220629030041 80 47 1.7 4.3 0.00 0.06 0.06 31 1018.3
20220629024537 80 0 0.0 4.3 0.00 0.06 0.06 32 1018.3
20220629023035 80 5 0.9 3.5 0.00 0.06 0.06 33 1018.1
20220629021536 80 0 0.0 2.6 0.00 0.06 0.06 33 1018.0
20220629020035 80 10 0.9 5.2 0.00 0.06 0.06 32 1018.1
20220629014542 81 285 1.7 4.3 0.00 0.06 0.06 31 1018.3
20220629013037 82 211 0.0 3.5 0.00 0.06 0.06 30 1018.3
20220629011538 83 141 0.9 5.2 0.00 0.06 0.06 28 1018.3
20220629010047 84 117 4.3 10.4 0.00 0.06 0.06 27 1018.3
20220629004545 84 94 9.6 17.4 0.00 0.06 0.06 26 1018.3
20220629003056 87 74 12.2 20.0 0.00 0.06 0.06 24 1018.5
20220629001547 88 95 9.6 16.5 0.00 0.06 0.06 22 1018.5
20220629000038 86 108 12.2 22.6 0.00 0.06 0.06 26 1019.4
20220628234543 86 217 1.7 10.4 0.00 0.06 0.06 24 1020.3
20220628233044 87 208 8.7 19.1 0.00 0.06 0.06 22 1020.2
20220628231543 89 296 0.0 2.6 0.00 0.06 0.06 22 1019.1
20220628230042 90 26 3.5 7.8 0.00 0.06 0.06 20 1018.6
20220628224546 91 35 5.2 12.2 0.00 0.06 0.06 19 1018.8
20220628223041 93 31 6.1 13.9 0.00 0.06 0.06 18 1019.0
20220628221537 92 24 7.0 12.2 0.00 0.06 0.06 21 1019.3
20220628220036 91 13 6.1 11.3 0.00 0.06 0.06 22 1019.6
20220628214536 91 34 3.5 9.6 0.06 0.06 0.06 27 1019.9
20220628213042 86 20 6.1 12.2 0.06 0.06 0.06 31 1020.3
20220628211538 81 267 10.4 21.7 0.06 0.06 0.06 33 1020.8
20220628210035 76 246 4.3 11.3 0.06 0.06 0.06 48 1021.1
20220628204541 90 67 11.3 24.3 0.00 0.00 0.00 24 1021.0
20220628203040 93 180 5.2 13.0 0.00 0.00 0.00 16 1020.2
20220628201535 99 161 6.1 15.6 0.00 0.00 0.00 13 1020.5
20220628200035 95 189 6.1 15.6 0.00 0.00 0.00 16 1020.7
20220628194539 97 141 11.3 19.1 0.00 0.00 0.00 15 1021.0
20220628193040 92 144 6.1 19.1 0.00 0.00 0.00 18 1021.4
20220628191542 95 188 7.8 18.2 0.00 0.00 0.00 17 1021.5
20220628190038 90 124 12.2 19.1 0.00 0.00 0.00 20 1021.8
20220628184534 88 176 9.6 15.6 0.00 0.00 0.00 21 1021.9
20220628183035 91 137 8.7 18.2 0.00 0.00 0.00 20 1022.0
20220628181538 94 143 9.6 20.0 0.00 0.00 0.00 18 1022.2
20220628180032 88 138 10.4 16.5 0.00 0.00 0.00 21 1022.3
20220628174543 90 110 8.7 13.9 0.00 0.00 0.00 20 1022.3
20220628173040 88 150 7.8 13.9 0.00 0.00 0.00 22 1022.5
20220628171544 85 141 4.3 10.4 0.00 0.00 0.00 23 1022.7
20220628170042 85 136 2.6 7.0 0.00 0.00 0.00 23 1022.8
20220628164538 87 234 1.7 8.7 0.00 0.00 0.00 21 1022.8
20220628163041 89 211 3.5 15.6 0.00 0.00 0.00 19 1022.6
20220628161545 86 155 3.5 8.7 0.00 0.00 0.00 21 1022.2
20220628160037 85 218 5.2 14.8 0.00 0.00 0.00 21 1022.3
20220628154538 84 146 3.5 13.9 0.00 0.00 0.00 24 1022.3
20220628153047 83 249 3.5 15.6 0.00 0.00 0.00 24 1022.6
20220628151604 83 162 2.6 11.3 0.00 0.00 0.00 23 1022.6
20220628150044 81 200 1.7 12.2 0.00 0.00 0.00 26 1022.6
20220628144547 81 126 7.8 12.2 0.00 0.00 0.00 27 1022.6
20220628143034 80 146 4.3 10.4 0.00 0.00 0.00 28 1022.6
20220628141551 78 124 6.1 9.6 0.00 0.00 0.00 30 1022.5
20220628140037 75 142 1.7 7.0 0.00 0.00 0.00 32 1022.6
20220628134547 72 128 2.6 8.7 0.00 0.00 0.00 33 1022.6
20220628133042 72 225 0.9 4.3 0.00 0.00 0.00 34 1022.5
20220628131538 72 183 0.9 3.5 0.00 0.00 0.00 35 1022.6
20220628130041 71 179 1.7 5.2 0.00 0.00 0.00 35 1022.5
20220628124538 71 207 0.9 9.6 0.00 0.00 0.00 35 1022.4
20220628123037 70 138 4.3 9.6 0.00 0.00 0.00 37 1022.4
20220628121538 67 194 1.7 5.2 0.00 0.00 0.00 41 1022.3
20220628120043 67 149 0.0 5.2 0.00 0.00 0.00 43 1022.2
20220628114537 68 168 1.7 7.0 0.00 0.00 0.00 41 1022.2
20220628113033 68 137 4.3 7.8 0.00 0.00 0.00 39 1022.1
20220628111531 69 138 7.0 11.3 0.00 0.00 0.00 38 1022.0
20220628110050 68 143 2.6 7.0 0.00 0.00 0.00 38 1022.0
20220628104535 66 134 2.6 7.0 0.00 0.00 0.00 39 1022.0
20220628103043 67 142 0.0 2.6 0.00 0.00 0.00 34 1022.0
20220628101535 68 207 0.9 2.6 0.00 0.00 0.00 32 1022.0
20220628100042 68 211 0.9 2.6 0.00 0.00 0.00 31 1022.1
20220628094535 69 188 0.0 2.6 0.00 0.00 0.00 30 1022.1
20220628093046 68 215 0.9 2.6 0.00 0.00 0.00 31 1022.2
20220628091550 68 215 0.9 5.2 0.00 0.00 0.00 30 1022.2
20220628090041 69 207 1.7 4.3 0.00 0.00 0.00 28 1022.3
20220628084542 69 218 1.7 3.5 0.00 0.00 0.00 29 1022.3
20220628083041 69 218 1.7 4.3 0.00 0.00 0.00 30 1022.4
20220628081535 69 214 1.7 4.3 0.00 0.00 0.00 31 1022.4
20220628080038 67 188 0.0 6.1 0.00 0.00 0.00 34 1022.3
20220628074538 68 217 0.9 2.6 0.00 0.00 0.00 32 1022.2
20220628073035 68 206 1.7 3.5 0.00 0.00 0.00 34 1022.3
20220628071536 67 215 0.9 2.6 0.00 0.00 0.00 39 1022.3
20220628070038 70 0 0.9 3.5 0.00 0.00 0.00 34 1022.4
20220628064535 71 30 0.9 2.6 0.00 0.00 0.00 32 1022.3
20220628063041 71 0 0.0 1.7 0.00 0.00 0.00 32 1022.5
20220628061546 72 184 0.9 1.7 0.00 0.00 0.00 31 1022.4
20220628060045 72 140 0.0 2.6 0.00 0.00 0.00 31 1022.4
20220628054544 72 0 0.0 2.6 0.00 0.00 0.00 32 1022.4
20220628053050 73 0 0.0 1.7 0.00 0.00 0.00 32 1022.4
20220628051531 73 0 0.0 0.0 0.00 0.00 0.00 32 1022.6
20220628050044 74 0 0.0 1.7 0.00 0.00 0.00 32 1022.4
20220628044559 75 0 0.0 0.0 0.00 0.00 0.00 31 1022.5
20220628043040 77 327 0.0 2.6 0.00 0.00 0.00 28 1022.6
20220628041541 78 321 0.9 2.6 0.00 0.00 0.00 26 1022.5